{"data":{"norad_id":48683,"intl_designator":"2021-044AX","name":"STARLINK-2756","alt_names":[],"object_type":"PAYLOAD","status":"ACTIVE","operator":null,"country":"US","launch_date":"2021-05-26","launch_site_code":"AFETR","launch_vehicle":null,"mission":null,"orbit_class":"UNKNOWN","rcs_meters":null,"size_class":null,"mass_kg":null,"dimensions":null,"purposes":["comms"],"wikipedia_slug":null,"has_3d_model":false,"image_url":null,"decayed_at":null,"tle_current":{"epoch":"2026-05-25T01:28:55.816896Z","epoch_age_seconds":65654,"freshness":"FRESH","line1":"1 48683U 21044AX  26145.06175714  .00006725  00000+0  22819-3 0  9993","line2":"2 48683  53.1610  69.9909 0001228  86.8382 273.2760 15.31710340276206","mean_motion":15.3171034,"eccentricity":0.0001228,"inclination_deg":53.161,"raan_deg":69.9909,"arg_perigee_deg":86.8382,"mean_anomaly_deg":273.276,"bstar":0.00022819,"rev_number":27620,"period_min":94.012553313442,"perigee_km":469.86813408712,"apogee_km":471.55021070706,"semimajor_km":6848.8461723971,"source":"CELESTRAK","updated_at":"2026-05-25T13:38:16.761121Z"}}}